Weather History for Moline, IL

Change the Weather History Date:

Friday, October 7, 2011

  Actual Average Record
Temperature  
Mean Temperature 70 °F 56 °F  
Max Temperature 83 °F 68 °F 92 °F (1939)
Min Temperature 56 °F 45 °F 27 °F (1952)
Degree Days  
Heating Degree Days 0 9  
Month to date heating degree days 41 59  
Since 1 July heating degree days 207 163  
Cooling Degree Days 5 1  
Month to date cooling degree days 5 7  
Year to date cooling degree days 1120 996  
Growing Degree Days 20 (Base 50)    
Moisture  
Dew Point 51 °F    
Average Humidity 56    
Maximum Humidity 80    
Minimum Humidity 31    
Precipitation  
Precipitation 0.00 in 0.09 in 4.12 in (1884)
Month to date precipitation 0.00 0.65  
Year to date precipitation 27.06 30.90  
Snow  
Snow 0.00 in 0.00 in - ()
Month to date snowfall 0.0 0.0  
Since 1 July snowfall 0.0 0.0  
Since 1 September snowfall 0.0 0.0  
Snow Depth 0.00 in    
Sea Level Pressure  
Sea Level Pressure 30.17 in    
Wind  
Wind Speed 10 mph (SSE)    
Max Wind Speed 22 mph    
Max Gust Speed 28 mph    
Visibility 10 miles    
Events      
T = Trace of Precipitation, MM = Missing Value Source: NWS Daily Summary

Daily Weather History Graph

Daily Weather History Graph

Search for Another Location

Airport:

Trip Planner

Search our weather history database for the weather conditions in past years. The results will help you decide how hot, cold, wet, or windy it might be!

Date:

Astronomy

Oct. 07, 2011 Rise Set
Actual Time 7:04 AM CDT 6:34 PM CDT
Civil Twilight 6:37 AM CDT 7:01 PM CDT
Nautical Twilight 6:05 AM CDT 7:33 PM CDT
Astronomical Twilight 5:32 AM CDT 8:06 PM CDT
Moon 4:19 PM CDT (10/7) 2:51 AM CDT (10/7)
Length of Visible Light 12h 24m
Length of Day
11h 29m
Waxing Gibbous, 83% of the Moon is Illuminated
Oct 7
Waxing Gibbous
Oct 11
Full
Oct 19
Last Quarter
Oct 26
New
Nov 2
First Quarter

Hourly Weather History & Observations

Time (CDT) Temp. Dew Point Humidity Pressure Visibility Wind Dir Wind Speed Gust Speed Precip Events Conditions
12:52 AM 61.0 °F 50.0 °F 67% 30.16 in 10.0 mi SE 5.8 mph - N/A   Clear
1:52 AM 60.1 °F 51.1 °F 72% 30.16 in 10.0 mi SSE 5.8 mph - N/A   Clear
2:52 AM 59.0 °F 51.1 °F 75% 30.16 in 10.0 mi SSE 6.9 mph - N/A   Clear
3:52 AM 59.0 °F 51.1 °F 75% 30.18 in 10.0 mi SSE 6.9 mph - N/A   Clear
4:52 AM 57.2 °F 51.8 °F 82% 30.20 in 10.0 mi SE 5.8 mph - N/A   Clear
5:52 AM 57.0 °F 51.1 °F 81% 30.21 in 10.0 mi SE 6.9 mph - N/A   Clear
6:52 AM 57.0 °F 51.1 °F 81% 30.22 in 10.0 mi SSE 6.9 mph - N/A   Clear
7:52 AM 57.9 °F 52.0 °F 81% 30.23 in 10.0 mi SE 6.9 mph - N/A   Clear
8:52 AM 64.0 °F 54.0 °F 70% 30.23 in 10.0 mi South 6.9 mph - N/A   Clear
9:52 AM 71.1 °F 55.0 °F 57% 30.23 in 10.0 mi SSW 12.7 mph 18.4 mph N/A   Clear
10:52 AM 75.9 °F 54.0 °F 46% 30.22 in 10.0 mi SSW 13.8 mph 27.6 mph N/A   Clear
11:52 AM 78.1 °F 54.0 °F 43% 30.19 in 10.0 mi South 19.6 mph 26.5 mph N/A   Clear
12:52 PM 81.0 °F 51.1 °F 35% 30.17 in 10.0 mi South 16.1 mph 23.0 mph N/A   Clear
1:52 PM 82.0 °F 50.0 °F 33% 30.15 in 10.0 mi South 15.0 mph 24.2 mph N/A   Clear
2:52 PM 82.9 °F 50.0 °F 32% 30.13 in 10.0 mi South 18.4 mph 25.3 mph N/A   Clear
3:52 PM 82.9 °F 48.0 °F 29% 30.14 in 10.0 mi South 19.6 mph 27.6 mph N/A   Clear
4:52 PM 82.0 °F 48.0 °F 30% 30.12 in 10.0 mi South 13.8 mph 20.7 mph N/A   Clear
5:52 PM 80.1 °F 48.0 °F 32% 30.12 in 10.0 mi SSE 13.8 mph 19.6 mph N/A   Clear
6:52 PM 73.0 °F 46.9 °F 39% 30.13 in 10.0 mi SSE 8.1 mph - N/A   Clear
7:52 PM 69.1 °F 46.0 °F 44% 30.15 in 10.0 mi SE 5.8 mph - N/A   Clear
8:52 PM 66.0 °F 48.0 °F 52% 30.16 in 10.0 mi SE 6.9 mph - N/A   Clear
9:52 PM 66.9 °F 48.9 °F 52% 30.16 in 10.0 mi SSE 10.4 mph - N/A   Clear
10:52 PM 66.9 °F 50.0 °F 54% 30.17 in 10.0 mi Variable 4.6 mph - N/A   Clear
11:52 PM 68.0 °F 51.1 °F 55% 30.17 in 10.0 mi South 6.9 mph - N/A   Clear